Location: Rounton
(54.4000°N, 1.3500°W)
Time: 15:56:42
(UTC+01:00)

S-56A Canister/Altair - Pass Details

Date: 13 September 2024
Orbit: 636 x 2487 km, 38.9° (Epoch: 02 October)

Event Time Altitude Azimuth Distance (km) Brightness Sun altitude
Rises 19:34:28 0° 199° (SSW) 3,400 11.0 -2.1°
Reaches altitude 10° 19:38:06 10° 174° (S) 2,744 10.2 -2.6°
Maximum altitude 19:41:17 14° 144° (SE) 2,722 9.9 -3.1°
Drops below altitude 10° 19:45:00 10° 116° (ESE) 3,328 10.2 -3.6°
Enters shadow 19:48:01 - 103° (ESE) 4,096 10.5 -4.0°
Sets 19:50:21 0° 95° (E) 4,761 - -4.4°
